Tracking 19484 objects as of 20-Jan-2019
HD Live streaming from Space Station
objects crossing your sky now

YURI 2A (BS-2A)

Track YURI 2A (BS-2A) now!
YURI 2A (BS-2A) is classified as:


NORAD ID: 14659
Int'l Code: 1984-005A
Perigee: 36,100.9 km
Apogee: 36,179.3 km
Inclination: 14.7 °
Period: 1,453.8 minutes
Semi major axis: 42511 km
RCS: 5.0178 m2 (large)
Launch date: January 23, 1984
Source: Japan (JPN)
Launch site: TANEGASHIMA SPACE CENTER (TNSTA)
aabbcc
Your satellite tracking list
Your tracking list is empty




NASA's NSSDC Master Catalog

Two Line Element Set (TLE):
1 14659U 84005A   19019.46741634 +.00000043 +00000-0 +00000-0 0  9994
2 14659 014.7084 346.7442 0009225 206.2710 337.5020 00.99048861091518
Source of the keplerian elements: AFSPC